Simultaneous Nadir Overpasses (SNOs) Predictions

Prediction of SNOs between GOES-14 and NPP Satellite Orbit:

Table of predicted SNOs for the next 14.0 days since TLE Epoch: 3/9/2024
Index Date Time (GOES-14) GOES-14 Lat,Lon NPP Lat,Lon Distance(km) Time Diff (sec)
1 03/09/2024 20:52:43 -0.11,-108.42 -0.93,-112.02 410.38 80
2 03/10/2024 20:36:39 -0.11,-108.43 0.07,-107.49 106.06 80
3 03/12/2024 08:58:30 0.11,-108.42 1.06,-112.78 496.80 80
4 03/13/2024 08:37:06 0.11,-108.42 0.05,-108.26 19.28 80
5 03/15/2024 20:40:20 -0.11,-108.46 -0.27,-109.04 67.06 80
6 03/16/2024 20:24:17 -0.11,-108.46 0.74,-104.51 449.28 80
7 03/18/2024 08:46:06 0.12,-108.45 0.44,-109.79 153.54 80
8 03/19/2024 08:24:42 0.12,-108.45 -0.58,-105.27 362.46 80
9 03/20/2024 20:46:41 -0.13,-108.47 -0.59,-110.58 240.07 80
10 03/21/2024 20:30:37 -0.13,-108.48 0.43,-106.06 276.50 80
